Total_Precipitation_Accumulation
1.34 1.28 1.21 1.09 1.03 1.05 1.15 1.32 1.55 1.48 1.16 0.94 0.91 0.90 0.93 0.93 0.99 0.92 0.81 0.99 1.05 1.06 1.09 1.13 1.11 1.10 1.20 1.33 1.50 1.72 1.88 1.93 1.95 2.02 2.10 2.12 2.19 2.34
1.30 1.26 1.20 1.12 1.08 1.08 1.13 1.21 1.35 1.48 1.33 0.98 0.85 0.80 0.84 0.86 0.95 0.84 0.79 0.96 0.97 0.97 0.97 0.96 0.97 1.01 1.07 1.18 1.29 1.43 1.65 1.79 1.82 1.84 1.92 2.00 2.09 2.20
1.24 1.22 1.19 1.13 1.11 1.09 1.10 1.14 1.19 1.27 1.27 0.99 0.82 0.79 0.81 0.82 0.86 0.83 0.79 0.76 0.74 0.84 0.84 0.84 0.85 0.91 1.01 1.08 1.14 1.23 1.41 1.56 1.71 1.78 1.88 1.98 2.03 2.04
1.14 1.17 1.18 1.18 1.21 1.21 1.21 1.18 1.15 1.14 1.16 1.05 0.86 0.76 0.71 0.68 0.68 0.72 0.74 0.73 0.67 0.78 0.80 0.79 0.82 0.88 0.96 0.99 1.01 1.08 1.18 1.28 1.42 1.54 1.62 1.74 1.86 1.96
1.01 1.06 1.11 1.16 1.23 1.24 1.22 1.18 1.13 1.08 1.08 1.07 0.93 0.78 0.71 0.66 0.67 0.68 0.69 0.70 0.66 0.72 0.76 0.76 0.79 0.82 0.87 0.96 0.99 0.99 1.01 1.08 1.16 1.27 1.38 1.46 1.56 1.70
0.97 0.99 1.02 1.04 1.05 1.05 1.04 1.03 1.03 1.04 1.04 1.06 1.00 0.86 0.76 0.70 0.74 0.80 0.78 0.69 0.65 0.60 0.66 0.66 0.68 0.70 0.72 0.78 0.86 0.89 0.90 0.97 1.07 1.17 1.31 1.38 1.41 1.53
1.02 1.01 0.96 0.95 0.90 0.89 0.89 0.88 0.89 0.96 1.04 1.08 1.02 0.90 0.78 0.74 0.74 0.72 0.77 0.74 0.68 0.62 0.60 0.58 0.57 0.56 0.57 0.64 0.74 0.87 0.96 1.08 1.22 1.31 1.43 1.54 1.62 1.68
0.92 0.88 0.86 0.86 0.84 0.87 0.87 0.86 0.91 1.01 1.12 1.11 0.99 0.82 0.65 0.60 0.65 0.76 0.87 0.92 0.83 0.60 0.60 0.62 0.62 0.63 0.59 0.62 0.77 0.89 1.01 1.14 1.30 1.38 1.45 1.51 1.59 1.70
0.83 0.77 0.73 0.69 0.71 0.67 0.74 0.81 0.83 0.89 0.94 0.93 0.86 0.71 0.64 0.62 0.79 0.97 0.96 0.92 0.75 0.56 0.61 0.68 0.65 0.68 0.66 0.71 0.85 0.88 1.01 1.14 1.29 1.37 1.45 1.48 1.53 1.62
0.69 0.65 0.60 0.59 0.60 0.64 0.71 0.78 0.68 0.64 0.64 0.62 0.63 0.66 0.67 0.67 0.78 0.94 0.95 0.92 0.77 0.66 0.65 0.75 0.66 0.68 0.66 0.71 0.84 0.83 0.89 1.03 1.20 1.34 1.45 1.48 1.50 1.58
0.57 0.59 0.61 0.57 0.64 0.79 0.81 0.79 0.66 0.54 0.56 0.63 0.67 0.67 0.69 0.69 0.72 0.93 1.10 1.17 1.00 0.73 0.64 0.67 0.60 0.62 0.68 0.72 0.81 0.89 0.89 0.97 1.12 1.25 1.32 1.41 1.51 1.56
0.52 0.56 0.63 0.62 0.71 0.83 0.76 0.73 0.66 0.56 0.54 0.53 0.52 0.52 0.50 0.54 0.66 0.79 1.17 1.49 1.21 0.88 0.59 0.71 0.73 0.79 1.00 0.75 0.74 0.81 0.86 0.97 1.09 1.15 1.18 1.28 1.38 1.39
0.52 0.50 0.53 0.71 0.80 0.79 0.72 0.61 0.65 0.70 0.60 0.51 0.49 0.48 0.46 0.47 0.50 0.55 0.79 1.39 1.62 1.12 0.59 1.03 1.19 0.91 1.09 0.86 0.73 0.81 0.93 1.10 1.18 1.19 1.20 1.22 1.27 1.35
0.49 0.45 0.51 0.70 0.71 0.65 0.60 0.63 0.75 0.72 0.59 0.58 0.56 0.54 0.50 0.46 0.46 0.48 0.55 0.73 1.04 1.13 0.81 1.22 1.68 1.27 1.34 1.12 0.87 0.89 0.97 1.20 1.47 1.52 1.46 1.44 1.36 1.35
0.56 0.63 0.66 0.63 0.57 0.54 0.57 0.62 0.62 0.58 0.65 0.73 0.67 0.57 0.51 0.49 0.51 0.54 0.56 0.61 0.70 0.73 0.78 0.95 1.34 1.40 1.56 1.52 1.20 1.01 1.14 1.28 1.60 1.88 1.78 1.57 1.37 1.30
0.67 0.70 0.64 0.55 0.50 0.50 0.54 0.55 0.53 0.55 0.67 0.76 0.71 0.59 0.54 0.57 0.62 0.70 0.79 0.81 0.90 0.82 0.79 0.85 1.03 1.37 1.50 1.27 1.34 1.26 1.30 1.66 1.85 2.03 1.91 1.65 1.42 1.27
0.74 0.60 0.52 0.49 0.48 0.46 0.45 0.46 0.50 0.56 0.63 0.65 0.70 0.69 0.63 0.62 0.64 0.74 0.96 1.08 1.12 0.96 0.86 0.81 0.83 0.96 1.16 1.27 1.32 1.23 1.34 1.58 1.81 1.96 1.77 1.62 1.55 1.42
0.70 0.58 0.54 0.49 0.47 0.44 0.43 0.46 0.47 0.53 0.61 0.71 0.74 0.75 0.76 0.75 0.74 0.77 0.96 1.15 1.15 1.01 0.92 0.84 0.85 0.94 0.96 0.99 1.20 1.38 1.42 1.59 1.71 1.65 1.38 1.40 1.50 1.37
0.59 0.57 0.55 0.53 0.51 0.48 0.49 0.52 0.52 0.51 0.63 0.78 0.85 0.86 0.86 0.83 0.85 0.91 1.00 1.08 1.05 0.93 0.81 0.75 0.88 1.22 1.26 0.93 0.79 1.11 1.49 1.57 1.45 1.37 1.20 1.22 1.45 1.38
0.49 0.52 0.53 0.52 0.54 0.57 0.60 0.63 0.63 0.63 0.70 0.79 0.84 0.88 0.95 1.01 0.99 0.98 1.02 1.06 1.02 0.83 0.67 0.57 0.69 1.12 1.56 1.39 1.11 1.03 1.15 1.37 1.44 1.45 1.23 1.10 1.19 1.19
0.49 0.49 0.49 0.51 0.57 0.63 0.66 0.69 0.74 0.79 0.83 0.94 0.95 0.96 1.02 1.12 1.06 0.97 0.96 0.92 0.86 0.77 0.67 0.53 0.52 0.75 1.10 1.25 1.10 0.89 0.98 1.10 1.28 1.62 1.55 1.38 1.17 1.01
0.50 0.50 0.50 0.52 0.59 0.65 0.69 0.73 0.79 0.81 0.87 0.96 0.99 1.02 1.07 1.15 1.12 0.96 0.87 0.85 0.78 0.72 0.67 0.55 0.50 0.61 0.84 1.11 0.98 0.75 0.77 0.81 0.84 0.92 1.17 1.52 1.88 1.93
0.54 0.54 0.54 0.58 0.63 0.68 0.72 0.74 0.79 0.81 0.88 0.99 1.05 1.04 1.04 1.01 0.90 0.87 0.84 0.84 0.85 0.79 0.74 0.69 0.61 0.63 0.70 0.79 0.84 0.73 0.65 0.64 0.63 0.70 0.90 0.97 1.11 1.37